Weather History for Baraboo, WI

Change the Weather History Date:

Thursday, November 22, 2012

  Actual Average Record
Temperature  
Mean Temperature 48 °F -  
Max Temperature 60 °F 41 °F 60 °F (1963)
Min Temperature 35 °F 23 °F 5 °F (1981)
Degree Days  
Heating Degree Days 18    
Moisture  
Dew Point 37 °F    
Average Humidity 61    
Maximum Humidity 81    
Minimum Humidity 45    
Precipitation  
Precipitation 0.00 in - - ()
Sea Level Pressure  
Sea Level Pressure 29.78 in    
Wind  
Wind Speed 14 mph (SW)    
Max Wind Speed 25 mph    
Max Gust Speed 33 mph    
Visibility 10 miles    
Events      
Averages and records for this station are not official NWS values.
T = Trace of Precipitation, MM = Missing Value Source: NWS Daily Summary

Daily Weather History Graph

Daily Weather History Graph

Search for Another Location

Airport:

Trip Planner

Search our weather history database for the weather conditions in past years. The results will help you decide how hot, cold, wet, or windy it might be!

Date:

Astronomy

Nov. 22, 2012 Rise Set
Actual Time 7:02 AM CST 4:28 PM CST
Civil Twilight 6:30 AM CST 4:59 PM CST
Nautical Twilight 5:55 AM CST 5:34 PM CST
Astronomical Twilight 5:21 AM CST 6:08 PM CST
Moon 1:21 PM CST (11/22) 1:12 AM CST (11/22)
Length of Visible Light 10h 28m
Length of Day
9h 25m
Waxing Gibbous, 71% of the Moon is Illuminated
Nov 22
Waxing Gibbous
Nov 28
Full
Dec 6
Last Quarter
Dec 13
New
Dec 19
First Quarter

Hourly Weather History & Observations

Time (CST) Temp. Windchill Dew Point Humidity Pressure Visibility Wind Dir Wind Speed Gust Speed Precip Events Conditions
12:15 AM 46.4 °F 41.1 °F 41.0 °F 81% 29.95 in 10.0 mi SSW 11.5 mph - N/A   Clear
12:35 AM 46.4 °F 41.1 °F 41.0 °F 81% 29.94 in 10.0 mi South 11.5 mph - N/A   Clear
12:55 AM 48.2 °F - 41.0 °F 76% 29.93 in 10.0 mi South 13.8 mph 18.4 mph N/A   Clear
1:15 AM 48.2 °F - 41.0 °F 76% 29.93 in 10.0 mi South 12.7 mph - N/A   Clear
1:35 AM 48.2 °F - 39.2 °F 71% 29.92 in 10.0 mi South 13.8 mph 19.6 mph N/A   Clear
1:55 AM 48.2 °F - 39.2 °F 71% 29.92 in 10.0 mi South 11.5 mph - N/A   Clear
2:15 AM 48.2 °F - 37.4 °F 66% 29.92 in 10.0 mi SSW 13.8 mph - N/A   Clear
2:35 AM 48.2 °F - 37.4 °F 66% 29.91 in 10.0 mi South 11.5 mph - N/A   Clear
2:55 AM 48.2 °F - 37.4 °F 66% 29.90 in 10.0 mi South 12.7 mph - N/A   Clear
3:15 AM 48.2 °F - 37.4 °F 66% 29.88 in 10.0 mi SSW 12.7 mph - N/A   Clear
3:35 AM 48.2 °F - 37.4 °F 66% 29.88 in 10.0 mi SSW 11.5 mph - N/A   Clear
3:55 AM 48.2 °F - 35.6 °F 62% 29.87 in 10.0 mi South 13.8 mph 18.4 mph N/A   Clear
4:15 AM 48.2 °F - 35.6 °F 62% 29.86 in 10.0 mi South 12.7 mph 19.6 mph N/A   Clear
4:35 AM 48.2 °F - 35.6 °F 62% 29.85 in 10.0 mi South 11.5 mph 16.1 mph N/A   Clear
4:55 AM 46.4 °F 41.1 °F 35.6 °F 66% 29.84 in 10.0 mi South 11.5 mph - N/A   Clear
5:15 AM 48.2 °F - 35.6 °F 62% 29.83 in 10.0 mi South 13.8 mph 19.6 mph N/A   Clear
5:35 AM 50.0 °F - 35.6 °F 58% 29.82 in 10.0 mi SSW 12.7 mph 17.3 mph N/A   Clear
5:55 AM 50.0 °F - 35.6 °F 58% 29.82 in 10.0 mi SSW 15.0 mph 23.0 mph N/A   Clear
6:15 AM 51.8 °F - 35.6 °F 54% 29.80 in 10.0 mi SSW 16.1 mph 24.2 mph N/A   Clear
6:35 AM 50.0 °F - 35.6 °F 58% 29.80 in 10.0 mi SSW 16.1 mph 23.0 mph N/A   Clear
6:55 AM 50.0 °F - 35.6 °F 58% 29.80 in 10.0 mi SSW 16.1 mph 20.7 mph N/A   Clear
7:15 AM 50.0 °F - 35.6 °F 58% 29.80 in 10.0 mi SSW 17.3 mph 21.9 mph N/A   Clear
7:35 AM 50.0 °F - 35.6 °F 58% 29.80 in 10.0 mi SSW 13.8 mph - N/A   Clear
7:55 AM 51.8 °F - 35.6 °F 54% 29.80 in 10.0 mi SSW 15.0 mph - N/A   Clear
8:15 AM 51.8 °F - 35.6 °F 54% 29.80 in 10.0 mi SSW 16.1 mph 24.2 mph N/A   Clear
8:35 AM 53.6 °F - 35.6 °F 51% 29.78 in 10.0 mi SSW 18.4 mph 24.2 mph N/A   Clear
8:55 AM 53.6 °F - 35.6 °F 51% 29.78 in 10.0 mi SSW 18.4 mph 26.5 mph N/A   Clear
9:15 AM 55.4 °F - 35.6 °F 47% 29.79 in 10.0 mi SSW 16.1 mph 25.3 mph N/A   Clear
9:35 AM 55.4 °F - 37.4 °F 51% 29.78 in 10.0 mi SSW 16.1 mph 26.5 mph N/A   Clear
9:55 AM 57.2 °F - 37.4 °F 48% 29.77 in 10.0 mi SSW 16.1 mph 28.8 mph N/A   Clear
10:15 AM 57.2 °F - 37.4 °F 48% 29.76 in 10.0 mi SSW 18.4 mph 25.3 mph N/A   Clear
10:35 AM 59.0 °F - 37.4 °F 45% 29.75 in 10.0 mi SSW 18.4 mph 26.5 mph N/A   Clear
10:55 AM 59.0 °F - 37.4 °F 45% 29.74 in 10.0 mi SSW 19.6 mph 24.2 mph N/A   Clear
11:15 AM 60.8 °F - 39.2 °F 45% 29.72 in 10.0 mi SSW 13.8 mph 27.6 mph N/A   Clear
11:35 AM 59.0 °F - 39.2 °F 48% 29.71 in 10.0 mi SSW 21.9 mph 26.5 mph N/A   Clear
12:35 PM 60.8 °F - 41.0 °F 48% 29.69 in 10.0 mi SW 16.1 mph 26.5 mph N/A   Clear
12:55 PM 59.0 °F - 41.0 °F 51% 29.68 in 10.0 mi SSW 15.0 mph 19.6 mph N/A   Clear
1:15 PM 59.0 °F - 41.0 °F 51% 29.67 in 10.0 mi SW 12.7 mph 24.2 mph N/A   Clear
1:35 PM 60.8 °F - 41.0 °F 48% 29.67 in 10.0 mi SSW 15.0 mph - N/A   Clear
1:55 PM 59.0 °F - 41.0 °F 51% 29.66 in 10.0 mi SSW 15.0 mph 18.4 mph N/A   Clear
2:15 PM 59.0 °F - 41.0 °F 51% 29.66 in 10.0 mi SW 16.1 mph 24.2 mph N/A   Clear
2:35 PM 59.0 °F - 42.8 °F 55% 29.67 in 10.0 mi SW 10.4 mph - N/A   Clear
2:55 PM 59.0 °F - 42.8 °F 55% 29.65 in 10.0 mi SW 13.8 mph 18.4 mph N/A   Clear
3:15 PM 59.0 °F - 42.8 °F 55% 29.65 in 10.0 mi SW 13.8 mph 24.2 mph N/A   Clear
3:35 PM 59.0 °F - 42.8 °F 55% 29.66 in 10.0 mi SSW 13.8 mph 17.3 mph N/A   Clear
3:55 PM 59.0 °F - 42.8 °F 55% 29.66 in 10.0 mi SW 13.8 mph 20.7 mph N/A   Clear
4:15 PM 57.2 °F - 42.8 °F 59% 29.67 in 10.0 mi SW 15.0 mph 20.7 mph N/A   Clear
4:35 PM 57.2 °F - 42.8 °F 59% 29.67 in 10.0 mi SW 11.5 mph 17.3 mph N/A   Mostly Cloudy
4:55 PM 57.2 °F - 42.8 °F 59% 29.67 in 10.0 mi SW 12.7 mph - N/A   Overcast
5:15 PM 55.4 °F - 42.8 °F 63% 29.67 in 10.0 mi SW 12.7 mph - N/A   Mostly Cloudy
5:35 PM 55.4 °F - 42.8 °F 63% 29.67 in 10.0 mi SW 6.9 mph 16.1 mph N/A   Mostly Cloudy
5:55 PM 55.4 °F - 42.8 °F 63% 29.66 in 10.0 mi SSW 9.2 mph - N/A   Overcast
6:35 PM 55.4 °F - 42.8 °F 63% 29.67 in 10.0 mi SW 10.4 mph 16.1 mph N/A   Mostly Cloudy
6:55 PM 55.4 °F - 42.8 °F 63% 29.67 in 10.0 mi WSW 15.0 mph - N/A   Clear
7:15 PM 53.6 °F - 37.4 °F 54% 29.69 in 10.0 mi West 18.4 mph 26.5 mph N/A   Clear
7:55 PM 46.4 °F 39.0 °F 35.6 °F 66% 29.73 in 10.0 mi West 19.6 mph 27.6 mph N/A   Clear
8:15 PM 42.8 °F 34.3 °F 33.8 °F 70% 29.75 in 10.0 mi West 19.6 mph 27.6 mph N/A   Scattered Clouds
8:35 PM 41.0 °F 30.9 °F 32.0 °F 70% 29.76 in 10.0 mi West 24.2 mph 31.1 mph N/A   Overcast
8:55 PM 41.0 °F 32.2 °F 32.0 °F 70% 29.77 in 10.0 mi West 18.4 mph 26.5 mph N/A   Mostly Cloudy
9:15 PM 41.0 °F 31.4 °F 32.0 °F 70% 29.78 in 10.0 mi West 21.9 mph 29.9 mph N/A   Overcast
9:35 PM 41.0 °F 32.5 °F 32.0 °F 70% 29.79 in 10.0 mi West 17.3 mph 27.6 mph N/A   Overcast
9:55 PM 37.4 °F 26.9 °F 30.2 °F 75% 29.80 in 10.0 mi West 20.7 mph 29.9 mph N/A   Overcast
10:15 PM 37.4 °F 26.4 °F 28.4 °F 70% 29.81 in 10.0 mi West 23.0 mph 33.4 mph N/A   Overcast
10:35 PM 35.6 °F 25.2 °F 28.4 °F 75% 29.81 in 10.0 mi West 18.4 mph 24.2 mph N/A   Mostly Cloudy
10:55 PM 35.6 °F 25.9 °F 28.4 °F 75% 29.82 in 10.0 mi West 16.1 mph 29.9 mph N/A   Overcast
11:15 PM 35.6 °F 24.2 °F 26.6 °F 70% 29.82 in 10.0 mi WNW 21.9 mph 31.1 mph N/A   Overcast
11:35 PM 35.6 °F 26.2 °F 26.6 °F 70% 29.82 in 10.0 mi West 15.0 mph 26.5 mph N/A   Overcast
11:55 PM 35.6 °F 23.4 °F 26.6 °F 70% 29.83 in 10.0 mi West 25.3 mph 31.1 mph N/A   Overcast